Weather in Tolvuya

Russia / Republic of Karelia     62°30′34″N   35°16′58″E
temp.,
°C
wind,
m/s
gust,
m/s
humid.,
%
clouds,
%
prec.,
mm/h
press.,
hPa
HPBL,
m
1 march, mon
mon100:000wsw389691 0.0 1014230
03:00−1sw4109487 0.0 1013330
06:00+1wsw5129695 0.2 1010512
09:00+2w5129897 0.2 1009473
12:00+1w41098100 0.0 1007377
15:00+1w51399100 0.1 1006574
18:00+2w51398100 0.4 1003518
21:00+1w6139786 0.7 1002609
2 march, tue
tue200:000wnw6148482 0.5 1001589
03:00−2w5138741 0.5 1002476
06:00−3wnw513860 0.0 1001491
09:00−3wnw5128638 0.0 1003663
12:00−2nw71281100 0.1 10041246
15:00−3nw6128099 0.2 10071007
18:00−4nw5128595 0.1 1009774
21:00−7wnw4108581 0.1 1011241
3 march, wed
wed300:00−8wnw36930 0.0 1010119
03:00−7w389312 0.0 1010199
06:00−5wnw4109494 0.2 1008379
09:00−5wnw4109396 0.3 1008437
12:00−3wnw489196 0.0 1007631
15:00−2w479198 0.1 1006639
18:00−4wsw2391100 0.1 100327
21:00−4s2396100 0.1 99973
4 march, thu
thu400:00−3e3597100 1.6 994200
03:00−4nne61095100 4.0 993529
06:00−7n499499 0.1 994252
09:00−7n4892100 0.2 996346
12:00−7nnw498992 0.0 997524
15:00−6nnw598895 0.0 999674
18:00−8nw379597 0.1 1000229
21:00−9nw359498 0.3 1002123
5 march, fri
fri500:00−12nnw239596 0.0 100343
03:00−15nnw229392 0.0 100520
06:00−16nw229183 0.0 100621
09:00−14nnw239592 0.1 1007118
12:00−11n248689 0.0 1010532
15:00−11nnw358467 0.0 1011539
18:00−14nnw239079 0.0 101321
21:00−15nnw229385 0.0 101521